User: anonymous   Login
Location: Pic du Midi - T1M
(42.9366°N, 0.1426°E)
Time: 17:37:36
(UTC+01:00)
Language:

Nauka - Orbit

View from above orbital plane
View from above orbital plane
View from above satellite
View from above satellite

Ground track
Ground track

The orbit data is extracted from the following two-line orbital elements,

1 49044U 21066A   21297.54141213  .00004311  00000-0  86992-4 0  9995
2 49044  51.6439  63.1140 0004051 135.7847 323.6341 15.48787015308640
Epoch (UTC): 24 October 2021 12:59:38
Eccentricity: 0.0004051
inclination: 51.6439°
perigee height: 417 km
apogee height: 423 km
right ascension of ascending node: 63.1140°
argument of perigee: 135.7847°
revolutions per day: 15.48787015
mean anomaly at epoch: 323.6341°
orbit number at epoch: 30864

The dashed part of the orbit path shows where the satellite is in the earth's shadow,  

DLR